Shelton, WA

10:11 PM PST on January 16, 2017 (GMT -0800)
Sanderson

Weather History for KSHN - December, 2012

Change the Weather History Date:

Monday, December 31, 2012

  Actual Average Record
Temperature  
Mean Temperature 32 °F -  
Max Temperature 35 °F 42 °F 62 °F (2013)
Min Temperature 28 °F 32 °F 11 °F (1978)
Degree Days  
Heating Degree Days 34    
Moisture  
Dew Point 32 °F    
Average Humidity 99    
Maximum Humidity 100    
Minimum Humidity 93    
Precipitation  
Precipitation 0.17 in - - ()
Sea Level Pressure  
Sea Level Pressure 30.32 in    
Wind  
Wind Speed 1 mph (North)    
Max Wind Speed 5 mph    
Max Gust Speed -    
Visibility 8 miles    
Events Snow    
Averages and records for this station are not official NWS values.
T = Trace of Precipitation, MM = Missing Value Source: NWS Daily Summary

Daily Weather History Graph

Daily Weather History Graph

Search for Another Location

Airport or City:

Trip Planner

Search our weather history database for the weather conditions in past years. The results will help you decide how hot, cold, wet, or windy it might be!

Date:

Astronomy

Dec. 31, 2012 Rise Set
Actual Time 7:59 AM PST 4:32 PM PST
Civil Twilight 7:23 AM PST 5:08 PM PST
Nautical Twilight 6:45 AM PST 5:47 PM PST
Astronomical Twilight 6:07 AM PST 6:24 PM PST
Moon 8:24 PM PST (12/31) 9:29 AM PST (12/31)
Length of Visible Light 9h 44m
Length of Day
8h 33m
Waning Gibbous, 89% of the Moon is Illuminated
Dec 31
Waning Gibbous
Jan 4
Last Quarter
Jan 11
New
Jan 18
First Quarter
Jan 26
Full

Hourly Weather History & Observations

Time (PST) Temp. Windchill Dew Point Humidity Pressure Visibility Wind Dir Wind Speed Gust Speed Precip Events Conditions
12:43 AM 32.0 °F - 32.0 °F 100% 30.27 in 10.0 mi Calm Calm - N/A   Mostly Cloudy
12:53 AM 32.0 °F - 32.0 °F 100% 30.29 in 10.0 mi Calm Calm - N/A   Mostly Cloudy
1:53 AM 30.9 °F - 30.0 °F 96% 30.28 in 10.0 mi Calm Calm - N/A   Overcast
2:06 AM 30.2 °F - 30.2 °F 100% 30.27 in 10.0 mi Calm Calm - N/A   Overcast
2:53 AM 30.9 °F - 30.9 °F 100% 30.28 in 7.0 mi Calm Calm - N/A   Partly Cloudy
3:21 AM 32.0 °F - 30.2 °F 93% 30.26 in 10.0 mi Calm Calm - N/A   Scattered Clouds
3:25 AM 30.2 °F - 30.2 °F 100% 30.26 in 10.0 mi Calm Calm - N/A   Mostly Cloudy
3:53 AM 32.0 °F - 32.0 °F 100% 30.27 in 10.0 mi Calm Calm - N/A   Overcast
4:53 AM 32.0 °F - 32.0 °F 100% 30.24 in 10.0 mi Calm Calm - N/A   Overcast
5:22 AM 32.0 °F - 32.0 °F 100% 30.22 in 10.0 mi Calm Calm - N/A   Scattered Clouds
5:53 AM 32.0 °F - 32.0 °F 100% 30.24 in 10.0 mi Calm Calm - N/A   Mostly Cloudy
6:01 AM 32.0 °F 28.7 °F 32.0 °F 100% 30.22 in 10.0 mi North 3.5 mph - N/A   Mostly Cloudy
6:53 AM 33.1 °F 30.0 °F 33.1 °F 100% 30.25 in 10.0 mi NNW 3.5 mph - N/A   Overcast
7:53 AM 32.0 °F - 32.0 °F 100% 30.26 in 10.0 mi Calm Calm - N/A   Overcast
8:53 AM 33.1 °F - 33.1 °F 100% 30.27 in 1.8 mi Calm Calm - N/A   Overcast
9:12 AM 33.8 °F - 33.8 °F 100% 30.26 in 3.0 mi Calm Calm - N/A   Overcast
9:24 AM 33.8 °F - 33.8 °F 100% 30.27 in 3.0 mi Calm Calm - 0.00 in   Overcast
9:30 AM 33.8 °F 30.8 °F 33.8 °F 100% 30.27 in 2.5 mi NW 3.5 mph - 0.00 in   Overcast
9:53 AM 33.1 °F - 33.1 °F 100% 30.30 in 7.0 mi Calm Calm - 0.01 in Snow Light Snow
10:07 AM 33.8 °F 30.8 °F 32.0 °F 93% 30.28 in 9.0 mi NE 3.5 mph - 0.01 in Snow Light Snow
10:14 AM 33.8 °F - 33.8 °F 100% 30.29 in 9.0 mi Calm Calm - 0.02 in Snow Light Snow
10:35 AM 32.0 °F 28.7 °F 32.0 °F 100% 30.29 in 5.0 mi NE 3.5 mph - 0.07 in Snow Light Snow
10:53 AM 32.0 °F - 32.0 °F 100% 30.32 in 4.0 mi Calm Calm - 0.09 in Snow Light Snow
11:13 AM 32.0 °F - 32.0 °F 100% 30.29 in 6.0 mi Calm Calm - 0.02 in Snow Light Snow
11:53 AM 32.0 °F - 32.0 °F 100% 30.31 in 4.0 mi Calm Calm - 0.04 in Snow Light Snow
12:06 PM 33.8 °F - 33.8 °F 100% 30.29 in 5.0 mi Calm Calm - 0.02 in Snow Light Snow
12:53 PM 33.1 °F - 33.1 °F 100% 30.31 in 8.0 mi Calm Calm - 0.03 in Snow Light Snow
1:13 PM 33.8 °F - 32.0 °F 93% 30.29 in 9.0 mi Calm Calm - 0.00 in Snow Light Snow
1:44 PM 33.8 °F - 33.8 °F 100% 30.29 in 10.0 mi Calm Calm - 0.00 in   Overcast
1:53 PM 34.0 °F - 33.1 °F 96% 30.31 in 10.0 mi Calm Calm - 0.00 in   Overcast
2:53 PM 35.1 °F - 34.0 °F 96% 30.32 in 10.0 mi Calm Calm - N/A   Overcast
3:18 PM 35.6 °F - 35.6 °F 100% 30.30 in 10.0 mi Calm Calm - N/A   Mostly Cloudy
3:38 PM 35.6 °F - 35.6 °F 100% 30.30 in 10.0 mi Calm Calm - N/A   Overcast
3:53 PM 35.6 °F 32.8 °F 35.6 °F 100% 30.31 in 10.0 mi NW 3.5 mph - N/A   Overcast
4:53 PM 35.1 °F - 34.0 °F 96% 30.34 in 10.0 mi Calm Calm - N/A   Overcast
5:27 PM 33.8 °F - 33.8 °F 100% 30.32 in 10.0 mi Calm Calm - N/A   Scattered Clouds
5:53 PM 33.8 °F - 32.0 °F 93% 30.33 in 10.0 mi Calm Calm - N/A   Mostly Cloudy
6:53 PM 32.0 °F - 32.0 °F 100% 30.37 in 5.0 mi Calm Calm - N/A   Mostly Cloudy
7:05 PM 30.2 °F 26.7 °F 30.2 °F 100% 30.36 in 5.0 mi NNW 3.5 mph - N/A   Mostly Cloudy
7:19 PM 30.2 °F 26.7 °F 30.2 °F 100% 30.37 in 10.0 mi WNW 3.5 mph - N/A   Scattered Clouds
7:28 PM 28.4 °F - 28.4 °F 100% 30.37 in 5.0 mi Calm Calm - N/A   Scattered Clouds
7:35 PM 30.2 °F - 30.2 °F 100% 30.37 in 1.8 mi Calm Calm - N/A   Mostly Cloudy
7:53 PM 30.0 °F - 30.0 °F 100% 30.41 in 1.5 mi Calm Calm - N/A   Overcast
8:34 PM 30.2 °F - 28.4 °F 93% 30.39 in 2.5 mi Calm Calm - N/A   Overcast
8:37 PM 30.2 °F - 28.4 °F 93% 30.39 in 3.0 mi Calm Calm - N/A   Overcast
8:53 PM 30.0 °F - 28.9 °F 96% 30.41 in 8.0 mi Calm Calm - N/A   Mostly Cloudy
9:06 PM 30.2 °F - 30.2 °F 100% 30.40 in 2.5 mi Calm Calm - N/A   Mostly Cloudy
9:18 PM 30.2 °F - 30.2 °F 100% 30.40 in 6.0 mi Calm Calm - N/A   Overcast
9:53 PM 32.0 °F 27.5 °F 32.0 °F 100% 30.43 in 10.0 mi North 4.6 mph - N/A   Overcast
10:53 PM 33.1 °F 30.0 °F 32.0 °F 96% 30.44 in 10.0 mi NNE 3.5 mph - N/A   Overcast
11:09 PM 33.8 °F 30.8 °F 33.8 °F 100% 30.42 in 10.0 mi NNE 3.5 mph - N/A   Overcast
11:53 PM 33.1 °F 28.7 °F 33.1 °F 100% 30.44 in 9.0 mi North 4.6 mph - N/A   Overcast